Location: Aufkirchen
(47.9603°N, 11.3653°E)
Time: 04:41:44
(UTC+01:00)

Vanguard 3 - Pass Details

Date: 30 November 2020
Orbit: 508 x 3262 km, 33.3° (Epoch: 23 January)

Event Time Altitude Azimuth Distance (km) Brightness Sun altitude
Rises 22:59:30 0° 237° (WSW) 2,650 - -60.9°
Reaches altitude 10° 23:02:40 10° 206° (SSW) 1,925 - -61.2°
Maximum altitude 23:04:32 13° 179° (S) 1,896 - -61.3°
Drops below altitude 10° 23:06:40 10° 154° (SSE) 2,257 - -61.5°
Sets 23:11:11 0° 127° (SE) 3,683 - -61.8°
